Station FMRF1 - 8725520 - Fort Myers, FL Image indicating link to RSS feed of recent meteorological observations for station FMRF1


Conditions at FMRF1 as of
(1:54 pm EDT)
1754 GMT on 05/25/2024:
     

Click on the graph icon in the table below to see a time series plot of the last five days of that observation.

5-day plot - Wind Direction Wind Direction (WDIR): W ( 260 deg true )
5-day plot - Wind Speed Wind Speed (WSPD): 4.1 kts
5-day plot - Wind Gust Wind Gust (GST): 6.0 kts
5-day plot - Atmospheric Pressure Atmospheric Pressure (PRES):29.95 in
5-day plot - Air Temperature Air Temperature (ATMP): 89.1 °F
5-day plot - Water Temperature Water Temperature (WTMP): 87.3 °F
5-day plot - Wind Speed at 10 Meters Wind Speed at 10 meters (WSPD10M): 3.9 kts
5-day plot - Wind Speed at 20 Meters Wind Speed at 20 meters (WSPD20M): 3.9 kts
5-day plot -  Wind Speed, Wind Gust and Atmospheric Pressure Combined plot of Wind Speed, Gust, and Air Pressure
NOS Water Level Observation Network Water Level
Previous observations
TIME
(EDT)
5-day plot - Wind Direction
WDIR
 
5-day plot - Wind Speed
WSPD
kts
5-day plot - Wind Gust
GST
kts
5-day plot - Wave Height
WVHT
ft
5-day plot - Dominant Wave Period
DPD
sec
5-day plot - Average Wave Period
APD
sec
5-day plot - Mean Wave Direction
MWD
 
5-day plot - Atmospheric Pressure
PRES
in
5-day plot - Pressure Tendency
PTDY
in
5-day plot - Air Temperature
ATMP
°F
5-day plot - Water Temperature
WTMP
°F
5-day plot - Dew Point
DEWP
°F
5-day plot - Salinity
SAL
psu
5-day plot - Visibility
VIS
nmi
5-day plot - Tide (above MLLW)
TIDE
ft
2024-05-25 01:48 pm W 2.9 7.0----29.95-- 87.3----
2024-05-25 01:42 pm W 5.1 8.0----29.96-- 87.3----
2024-05-25 01:36 pmWSW 2.9 6.0----29.96-- 87.4----
2024-05-25 01:30 pm SW 1.9 4.1----29.96- 90.1 87.4----
2024-05-25 01:24 pm SW 1.0 4.1----29.96- 90.0 87.4----
2024-05-25 01:18 pmWSW 2.9 4.1----29.96- 89.4 87.4----
2024-05-25 01:12 pmWSW 2.9 4.1----29.96- 89.1 87.4----
2024-05-25 01:06 pm W 2.9 4.1----29.96- 89.1 87.4----
2024-05-25 01:00 pmWSW 1.9 5.1----29.96-0.01 89.1 87.4----
2024-05-25 12:54 pmWSW 2.9 5.1----29.97- 89.1 87.4----
2024-05-25 12:48 pmWSW 1.9 5.1----29.97- 89.1 87.4----
2024-05-25 12:42 pm W 2.9 2.9----29.97- 88.5 87.4----
2024-05-25 12:36 pmWSW 1.9 5.1----29.97- 88.9 87.4----
2024-05-25 12:30 pm-------29.97- 89.2 87.4----
2024-05-25 12:24 pm-------29.97- 88.9 87.4----
2024-05-25 12:18 pm W 1.0 4.1----29.97- 89.4 87.4----
2024-05-25 12:12 pmWSW 1.9 2.9----29.97- 88.5 87.4----
2024-05-25 12:06 pmWSW 1.9 2.9----29.97- 88.7 87.4----
2024-05-25 12:00 pm- 0.0 0.0----29.97+0.00 90.7 87.4----
2024-05-25 11:54 am- 0.0 1.9----29.97- 88.3 87.4----
2024-05-25 11:48 am W 1.9 2.9----29.97-- 87.4----
2024-05-25 11:42 am- 0.0 1.9----29.97-- 87.4----
2024-05-25 11:36 am W 1.9 2.9----29.97-- 87.4----
2024-05-25 11:30 am- 0.0 1.9----29.97- 88.7 87.4----
2024-05-25 11:24 am- 0.0 1.0----29.97- 90.7 87.4----
2024-05-25 11:18 am- 0.0 0.0----29.97- 90.7 87.4----
2024-05-25 11:12 am- 0.0 1.9----29.97- 91.2 87.4----
2024-05-25 11:06 am- 0.0 1.0----29.97- 90.5 87.4----
2024-05-25 11:00 am- 0.0 1.9----29.97+0.01 91.9 87.4----
2024-05-25 10:54 am- 0.0 2.9----29.98- 90.5 87.4----
2024-05-25 10:48 amWNW 2.9 4.1----29.98- 89.6 87.4----
2024-05-25 10:42 am NW 1.9 4.1----29.97- 88.9 87.4----
2024-05-25 10:36 amNNW 1.0 2.9----29.97- 88.9 87.4----
2024-05-25 10:30 amNNW 2.9 5.1----29.97- 87.4 87.4----
2024-05-25 10:24 am- 0.0 2.9----29.97- 87.3 87.4----
2024-05-25 10:18 am N 1.9 4.1----29.98- 86.2 87.4----
2024-05-25 10:12 amNNW 4.1 5.1----29.98- 87.3 87.4----
2024-05-25 10:06 amNNW 2.9 2.9----29.98- 88.5 87.4----
2024-05-25 10:00 am- 0.0 4.1----29.98+0.04- 87.4----
2024-05-25 09:54 am W 4.1 5.1----29.98-- 87.4----
2024-05-25 09:48 amWNW 1.9 2.9----29.97-- 87.4----
2024-05-25 09:42 am- 0.0 4.1----29.97-- 87.4----
2024-05-25 09:36 am W 2.9 4.1----29.97-- 87.4----
2024-05-25 09:30 amWNW 1.9 4.1----29.98- 87.1 87.4----
2024-05-25 09:24 am- 0.0 0.0----29.98- 86.7 87.4----
2024-05-25 09:18 am- 0.0 0.0----29.98- 86.4 87.4----
2024-05-25 09:12 am- 0.0 0.0----29.98- 86.5 87.3----
2024-05-25 09:06 am- 0.0 1.9----29.97- 85.6 87.3----
2024-05-25 09:00 am- 0.0 1.9----29.97+0.04 85.8 87.3----
2024-05-25 08:54 am NE 1.0 2.9----29.97- 84.4 87.3----
2024-05-25 08:48 amNNW 1.9 2.9----29.97-- 87.3----
2024-05-25 08:42 am N 2.9 4.1----29.97-- 87.3----
2024-05-25 08:36 amNNW 2.9 4.1----29.97-- 87.3----
2024-05-25 08:30 amNNW 1.0 2.9----29.97- 83.3 87.3----
2024-05-25 08:24 am N 1.9 2.9----29.97- 82.8 87.4----
2024-05-25 08:18 amNNW 1.9 2.9----29.97- 82.8 87.4----
2024-05-25 08:12 amNNW 1.9 2.9----29.97- 82.2 87.4----
2024-05-25 08:06 amNNW 1.9 2.9----29.97- 82.4 87.4----
2024-05-25 08:00 am- 0.0 1.9----29.96+0.04 81.7 87.4----
2024-05-25 07:54 amNNW 1.0 1.9----29.96- 81.5 87.4----
2024-05-25 07:48 am N 1.0 1.9----29.95- 81.7 87.4----
2024-05-25 07:42 am- 0.0 1.9----29.95- 81.1 87.4----
2024-05-25 07:36 amESE 1.9 2.9----29.95- 80.8 87.4----
2024-05-25 07:30 amESE 1.9 1.9----29.96- 80.1 87.4----
2024-05-25 07:24 am SE 1.9 1.9----29.95- 79.2 87.4----
2024-05-25 07:18 am SE 1.9 1.9----29.95- 78.3 87.4----
2024-05-25 07:12 amSSE 1.9 2.9----29.95- 78.1 87.4----
2024-05-25 07:06 am SE 2.9 2.9----29.94- 77.7 87.4----
2024-05-25 07:00 am SE 2.9 4.1----29.94+0.02 77.7 87.4----
2024-05-25 06:54 amESE 2.9 4.1----29.94- 77.7 87.6----
2024-05-25 06:48 amESE 2.9 4.1----29.94- 77.7 87.6----
2024-05-25 06:42 am SE 2.9 4.1----29.94- 77.7 87.6----
2024-05-25 06:36 am SE 2.9 2.9----29.94- 77.9 87.6----
2024-05-25 06:30 am-------29.94- 77.9 87.8----
2024-05-25 06:24 am-------29.94- 77.9 87.8----
2024-05-25 06:18 am SE 1.9 1.9----29.93- 78.1 87.8----
2024-05-25 06:12 am SE 1.9 1.9----29.93- 78.1 87.8----
2024-05-25 06:06 amESE 1.0 1.9----29.93- 78.1 87.8----
2024-05-25 06:00 am SE 1.0 2.9----29.93+0.01- 87.8----
2024-05-25 05:54 am SE 2.9 2.9----29.93-- 87.8----
2024-05-25 05:48 am SE 2.9 5.1----29.93- 77.9 87.8----
2024-05-25 05:42 am SE 4.1 5.1----29.93- 77.9 87.8----
2024-05-25 05:36 amSSE 4.1 5.1----29.93- 77.9 87.8----
2024-05-25 05:30 am SE 2.9 4.1------ 78.1 87.8----
2024-05-25 05:24 am SE 1.9 2.9------ 78.6 87.8----
2024-05-25 05:18 am- 0.0 1.9----29.92- 79.2 87.8----
2024-05-25 05:12 am- 0.0 1.9----29.92- 79.0 87.8----
2024-05-25 05:06 am E 1.0 1.9----29.92- 79.0 87.8----
2024-05-25 05:00 am E 1.0 1.9----29.92-0.01- 87.8----
2024-05-25 04:54 amENE 1.9 2.9----29.92-- 87.8----
2024-05-25 04:48 amESE 1.0 1.9----29.92-- 87.8----
2024-05-25 04:42 am SE 1.0 1.9----29.92-- 87.8----
2024-05-25 04:36 am SE 1.9 2.9----29.92-- 87.8----
2024-05-25 04:30 amESE 2.9 4.1----29.92- 78.6-----
2024-05-25 04:24 amESE 1.0 1.9----29.92- 79.2-----
2024-05-25 04:18 amESE 1.9 2.9------------
2024-05-25 04:12 amESE 2.9 2.9------------
2024-05-25 04:06 am SE 1.9 2.9------------
2024-05-25 04:00 amESE 2.9 2.9----29.92-0.02 79.9-----
2024-05-25 03:54 amESE 1.9 2.9----29.92- 80.4-----
2024-05-25 03:48 am- 0.0 1.0----29.93- 80.6 87.8----
2024-05-25 03:42 am- 0.0 1.0----29.92- 80.6 87.8----
2024-05-25 03:36 am- 0.0 1.0----29.92- 80.4 87.8----
2024-05-25 03:30 am SE 1.0 1.9----29.92- 80.4 87.8----
2024-05-25 03:24 amSSE 1.9 1.9----29.92- 80.4 87.8----
2024-05-25 03:18 amSSE 1.0 2.9----29.93- 80.4 87.8----
2024-05-25 03:12 am SE 2.9 4.1----29.93- 80.1 87.8----
2024-05-25 03:06 am SE 2.9 4.1----29.93- 80.1 87.8----
2024-05-25 03:00 am SE 4.1 5.1----29.92-0.03- 87.8----
2024-05-25 02:54 am SE 2.9 5.1----29.92-- 87.8----
2024-05-25 02:48 am SE 2.9 5.1----29.92- 80.6 87.8----
2024-05-25 02:42 amESE 2.9 4.1----29.92- 80.8 87.8----
2024-05-25 02:36 am E 2.9 5.1----29.92- 80.8 87.8----
2024-05-25 02:30 amENE 4.1 7.0----29.93- 81.0 87.8----
2024-05-25 02:24 amENE 5.1 7.0----29.93- 81.0 87.8----
2024-05-25 02:18 am E 4.1 5.1----29.93- 81.3 88.0----
2024-05-25 02:12 am E 2.9 5.1----29.93- 81.3 88.0----
2024-05-25 02:06 am E 4.1 5.1----29.93- 81.3 88.0----
2024-05-25 02:00 am E 4.1 7.0----29.93-0.02 81.1 88.0----
2024-05-25 01:54 am E 4.1 5.1----29.94- 81.5 88.0----
2024-05-25 01:48 am NE 2.9 5.1----29.94- 82.0 88.2----
2024-05-25 01:42 amNNE 4.1 5.1----29.94- 81.7 88.5----
2024-05-25 01:36 amNNE 2.9 4.1----29.94- 81.9 88.5----
2024-05-25 01:30 amNNE 4.1 5.1----29.94- 81.5 88.7----
2024-05-25 01:24 am N 2.9 4.1----29.94- 81.7 88.7----
2024-05-25 01:18 amNNE 2.9 4.1----29.94- 81.7 88.7----
2024-05-25 01:12 am N 2.9 4.1----29.94- 81.7 88.7----
2024-05-25 01:06 amNNW 4.1 5.1----29.94- 81.9 88.7----
2024-05-25 01:00 amNNW 4.1 6.0----29.94+0.00 81.9 88.7----
2024-05-25 12:54 amNNW 5.1 5.1----29.94- 81.9 88.9----
2024-05-25 12:48 amNNW 4.1 6.0----29.94- 81.7 88.9----
2024-05-25 12:42 am N 5.1 6.0----29.94- 82.0 88.9----
2024-05-25 12:36 am N 5.1 7.0----29.95- 81.9 88.9----
2024-05-25 12:30 am N 6.0 7.0----29.95- 82.0 88.9----
2024-05-25 12:24 am N 5.1 8.0----29.95- 82.0 88.9----
2024-05-25 12:18 am N 5.1 8.0----29.95- 82.0 88.9----
2024-05-25 12:12 amNNW 6.0 7.0----29.95- 82.2 88.9----
2024-05-25 12:06 amNNW 6.0 8.0----29.95- 82.2 89.1----
2024-05-25 12:00 am N 7.0 8.0----29.95+0.01 82.2 89.1----
2024-05-24 11:54 pmNNW 6.0 8.0----29.95- 82.6 89.1----
2024-05-24 11:48 pmNNW 6.0 8.0----29.96- 82.6 89.1----
2024-05-24 11:42 pm N 6.0 7.0----29.96- 82.8 89.1----
2024-05-24 11:36 pm N 5.1 7.0----29.96- 82.8 89.1----
2024-05-24 11:30 pm NW 6.0 6.0----29.96- 82.9 89.1----
2024-05-24 11:24 pmWNW 5.1 8.0----29.96- 83.3 89.1----
2024-05-24 11:18 pm NW 6.0 6.0----29.95- 82.9 89.1----
2024-05-24 11:12 pm NW 5.1 7.0----29.96- 83.1 89.2----
2024-05-24 11:06 pmWNW 5.1 6.0----29.96- 83.3 89.2----
2024-05-24 11:00 pm NW 5.1 7.0----29.96+0.05 83.3 89.2----
2024-05-24 10:54 pm NW 6.0 8.0----29.96- 83.1 89.2----
2024-05-24 10:48 pm NW 6.0 8.0----29.96- 83.5 89.2----
2024-05-24 10:42 pm NW 6.0 7.0----29.96- 83.3 89.2----
2024-05-24 10:36 pmWNW 6.0 7.0----29.96- 83.7 89.2----
2024-05-24 10:30 pmWNW 5.1 8.0----29.96- 83.7 89.2----
2024-05-24 10:24 pmWNW 6.0 8.0----29.96- 83.7 89.2----
2024-05-24 10:18 pm NW 6.0 8.0----29.95- 83.7 89.2----
2024-05-24 10:12 pm NW 5.1 7.0----29.95- 83.8 89.2----
2024-05-24 10:06 pmNNW 5.1 6.0----29.95- 83.5 89.2----
2024-05-24 10:00 pm NW 4.1 6.0----29.95+0.05 83.7 89.2----
2024-05-24 09:54 pmNNW 4.1 7.0----29.95- 83.7 89.2----
2024-05-24 09:48 pm NW 5.1 7.0----29.95- 84.0 89.2----
2024-05-24 09:42 pm NW 6.0 8.9----29.94- 83.8 89.2----
2024-05-24 09:36 pmNNW 5.1 6.0----29.94- 83.7 89.2----
2024-05-24 09:30 pmNNW 4.1 6.0----29.94- 83.7 89.2----
2024-05-24 09:24 pmWNW 6.0 9.9----29.94- 84.2 89.2----
2024-05-24 09:18 pm NW 8.0 8.9----29.94- 84.2 89.2----
2024-05-24 09:12 pm NW 6.0 8.9----29.94- 84.0 89.2----
2024-05-24 09:06 pm NW 7.0 11.1----29.94- 84.4 89.2----
2024-05-24 09:00 pm NW 8.9 11.1----29.93+0.04 84.7 89.2----
2024-05-24 08:54 pmWNW 8.9 11.1----29.93- 84.6 89.2----
2024-05-24 08:48 pmWNW 7.0 9.9----29.93- 84.9 89.2----
2024-05-24 08:42 pmWNW 8.0 12.0----29.93- 84.7 89.2----
2024-05-24 08:36 pmWNW 8.0 9.9----29.93- 84.6 89.2----
2024-05-24 08:30 pm W 6.0 9.9----29.92- 84.7 89.2----
2024-05-24 08:24 pmWNW 8.0 11.1----29.92- 84.7 89.2----
2024-05-24 08:18 pm W 7.0 8.9----29.92- 85.1 89.2----
2024-05-24 08:12 pm W 8.0 11.1----29.92- 84.7 89.2----
2024-05-24 08:06 pm W 8.9 11.1----29.91- 85.1 89.2----
2024-05-24 08:00 pm W 7.0 11.1----29.91+0.00 85.3 89.2----
2024-05-24 07:54 pmWNW 8.0 9.9----29.90- 85.6 89.1----
2024-05-24 07:48 pm W 9.9 12.0----29.90- 85.6 89.1----
2024-05-24 07:42 pm W 9.9 12.0----29.90- 85.6 89.2----
2024-05-24 07:36 pm W 9.9 13.0----29.90- 86.0 89.2----
2024-05-24 07:30 pm W 9.9 12.0----29.90- 85.8 89.2----
2024-05-24 07:24 pm W 11.1 13.0----29.90- 85.8 89.2----
2024-05-24 07:18 pm W 11.1 15.0----29.90- 86.2 89.2----
2024-05-24 07:12 pm W 11.1 13.0----29.90- 86.4 89.2----
2024-05-24 07:06 pm W 11.1 14.0----29.90- 86.9 89.4----
2024-05-24 07:00 pm W 12.0 14.0----29.90-0.01 87.3 89.4----
2024-05-24 06:54 pm W 9.9 12.0----29.90- 87.3 89.4----
2024-05-24 06:48 pm W 9.9 12.0----29.90- 87.4 89.4----
2024-05-24 06:42 pm W 9.9 13.0----29.90- 87.3 89.6----
2024-05-24 06:36 pm W 9.9 12.0----29.90- 87.3 89.6----
2024-05-24 06:30 pm W 11.1 14.0----29.90- 87.6 89.8----
2024-05-24 06:24 pm W 11.1 13.0----29.90- 87.6 90.0----
2024-05-24 06:18 pm W 9.9 12.0----29.90-- 90.3----
2024-05-24 06:12 pm W 9.9 12.0----29.90-- 90.5----
2024-05-24 06:06 pm W 8.9 12.0----29.90-- 90.5----
2024-05-24 06:00 pm W 11.1 12.0----29.90-0.02 88.2 90.5----
2024-05-24 05:54 pm W 8.9 12.0----29.90- 88.5 90.5----
2024-05-24 05:48 pmWSW 8.0 11.1----29.90- 88.5 90.3----
2024-05-24 05:42 pm W 8.9 12.0----29.90- 88.7 90.0----
2024-05-24 05:36 pm W 9.9 12.0----29.90- 88.3 89.8----
2024-05-24 05:30 pm W 11.1 13.0----29.90- 88.5 89.8----
2024-05-24 05:24 pm W 11.1 13.0----29.90- 88.7 89.6----
2024-05-24 05:18 pm W 8.9 11.1----29.90- 88.7 89.4----
2024-05-24 05:12 pmWSW 9.9 13.0----29.90- 88.5 88.7----
2024-05-24 05:06 pm W 8.9 12.0----29.90- 88.7 88.3----
2024-05-24 05:00 pm W 8.9 13.0----29.90-0.04 88.7 88.0----
2024-05-24 04:54 pm W 8.9 12.0----29.90- 89.1 87.6----
2024-05-24 04:48 pm W 6.0 9.9----29.90- 89.2 87.3----
2024-05-24 04:42 pmWSW 8.9 12.0----29.91- 88.7 87.1----
2024-05-24 04:36 pm W 8.0 9.9----29.91- 88.9 87.1----
2024-05-24 04:30 pm W 8.0 12.0----29.91- 89.1 87.1----
2024-05-24 04:24 pmWSW 9.9 12.0----29.91- 88.3 87.1----
2024-05-24 04:18 pmWSW 9.9 12.0----29.91- 88.9 87.1----
2024-05-24 04:12 pmWSW 6.0 9.9----29.91- 89.4 86.9----
2024-05-24 04:06 pmWSW 6.0 11.1----29.91- 89.2 86.9----
2024-05-24 04:00 pmWSW 6.0 9.9----29.91-0.05 89.1 86.9----
2024-05-24 03:54 pm W 8.0 9.9----29.92- 89.4 86.7----
2024-05-24 03:48 pmWSW 6.0 9.9----29.92- 90.0 86.7----
2024-05-24 03:42 pmWSW 6.0 8.0----29.92- 90.1 86.7----
2024-05-24 03:36 pmWSW 6.0 8.0----29.92- 89.8 86.7----
2024-05-24 03:30 pmWSW 5.1 8.9----29.92- 89.4 86.9----
2024-05-24 03:24 pmWSW 6.0 8.0----29.92- 89.4 86.7----
2024-05-24 03:18 pmWSW 7.0 9.9----29.92- 89.2 86.7----
2024-05-24 03:12 pmWSW 7.0 8.9----29.92- 89.2 86.7----
2024-05-24 03:06 pmWSW 6.0 7.0----29.92- 89.4 86.7----
2024-05-24 03:00 pmWSW 5.1 7.0----29.92-0.06 89.8 86.7----
2024-05-24 02:54 pmWSW 5.1 8.9----29.92- 89.4 86.7----
2024-05-24 02:48 pmWSW 6.0 7.0----29.92- 89.8 86.7----
2024-05-24 02:42 pm W 5.1 6.0----29.92- 90.9 86.7----
2024-05-24 02:36 pm W 2.9 4.1----29.93- 91.0 86.7----
2024-05-24 02:30 pmNNW 2.9 4.1----29.93- 92.3 86.7----
2024-05-24 02:24 pm N 1.9 4.1----29.93- 91.2 86.7----
2024-05-24 02:18 pm N 2.9 5.1----29.93- 91.4 86.7----
2024-05-24 02:12 pmWNW 1.9 2.9----29.93- 94.6 86.7----
2024-05-24 02:06 pmWNW 2.9 2.9----29.94- 93.6 86.7----
2024-05-24 02:00 pmWNW 2.9 4.1----29.94-0.04 93.6 86.7----
2024-05-24 01:54 pm NW 1.9 4.1----29.94- 93.4 86.9----